Probability
0 0 0 0 0 0 0 0 0 0 0 0 0 0 0 0 0 0 0 0 0 0 0 0 0 0 0 0 0 0 0 0 0 0 1 1 1 0
0 0 0 0 0 0 0 0 0 0 0 0 0 0 0 0 0 0 0 0 0 0 0 0 0 0 0 0 0 0 0 0 0 0 0 0 0 0
0 0 0 0 0 0 0 0 0 0 0 0 0 0 0 0 0 0 0 0 0 0 0 0 0 0 0 0 0 0 0 0 0 0 0 0 0 0
0 0 0 0 0 0 0 0 0 0 0 0 0 0 0 0 0 0 0 0 0 0 0 0 0 0 0 0 0 0 0 0 0 0 0 0 0 0
0 0 0 0 0 0 0 0 0 0 0 0 0 0 0 0 0 0 0 0 0 0 0 0 0 0 0 0 0 0 0 0 0 0 0 0 0 0
0 0 0 0 0 0 0 0 0 0 0 0 0 0 0 0 0 0 0 0 0 0 0 0 0 0 0 0 0 0 0 0 0 0 0 0 0 0
0 0 0 0 0 0 0 0 0 0 0 0 0 0 0 0 0 0 0 0 0 0 0 0 0 0 0 0 0 0 0 0 0 0 0 0 0 0
0 0 0 0 0 0 0 0 0 0 0 0 0 0 0 0 0 0 0 0 0 0 0 0 1 1 1 0 0 0 0 0 0 0 0 0 0 0
0 0 0 0 0 0 0 0 0 0 0 0 0 0 0 0 0 0 0 0 0 0 0 0 1 2 2 1 0 0 0 0 0 0 0 0 0 0
0 0 0 0 0 0 0 0 0 0 0 0 0 0 0 0 0 0 0 0 0 0 0 0 0 1 1 1 1 0 0 0 0 0 0 0 0 0
0 0 0 0 0 0 0 0 0 0 0 0 0 0 0 0 0 0 0 0 0 0 0 0 0 0 1 1 1 1 0 0 0 0 0 0 0 0
0 0 0 0 0 0 0 0 0 0 0 0 0 0 0 0 0 0 0 0 0 0 0 0 0 0 0 1 2 2 1 0 0 0 0 0 0 0
0 0 0 0 0 0 0 0 0 0 0 0 0 0 0 0 0 0 0 0 0 0 0 0 0 0 0 1 2 3 3 2 1 0 0 0 0 0
0 0 0 0 0 0 0 0 0 0 0 0 0 0 0 0 0 0 0 0 0 0 0 0 0 0 0 1 2 3 3 3 2 1 0 0 0 0
0 0 0 0 0 0 0 0 0 0 0 0 0 0 0 0 0 0 0 0 0 0 0 0 0 0 0 1 2 3 3 3 4 3 1 1 1 0
0 0 0 0 0 0 0 0 0 0 0 0 0 0 0 0 0 0 0 0 0 0 0 0 0 0 0 0 1 2 3 3 4 4 2 1 2 1
0 0 0 0 0 0 0 0 0 0 0 0 0 0 0 0 0 0 0 0 0 0 0 0 0 0 0 0 0 1 3 3 4 4 2 1 2 2
0 0 0 0 0 0 0 0 0 0 0 0 0 0 0 0 0 0 0 0 0 0 0 0 0 0 0 0 0 1 2 3 3 2 1 1 1 1
0 0 0 0 0 0 0 0 0 0 0 0 0 0 0 0 0 0 0 0 0 0 0 0 0 0 0 0 0 1 2 2 2 1 0 0 0 0
0 0 0 0 0 0 0 0 0 0 0 0 0 0 0 0 0 0 0 0 0 0 0 0 0 0 0 0 0 0 1 1 1 0 0 0 0 0
0 0 0 0 0 0 0 0 0 0 0 0 0 0 0 0 0 0 0 0 0 0 0 0 0 0 0 0 0 0 0 0 0 0 0 0 0 0
0 0 0 0 0 0 0 0 0 0 0 0 0 0 0 0 0 0 0 0 0 0 0 0 0 0 0 0 0 0 0 0 0 0 0 0 0 0
0 0 0 0 0 0 0 0 0 0 0 0 0 0 0 0 0 0 0 0 0 0 0 0 0 0 0 0 0 0 0 0 0 0 0 0 0 0
Wind_Speed
5 5 4 4 4 4 3 4 4 3 3 3 3 4 4 4 4 3 2 3 2 2 2 2 2 3 4 4 5 5 5 5 5 5 7 8 10 11
4 5 5 4 4 4 3 3 4 4 3 3 3 4 5 4 3 4 3 2 3 3 3 3 3 4 5 5 5 6 6 6 7 7 7 7 8 9
4 5 5 6 4 4 4 4 3 3 3 3 3 4 5 5 4 4 4 4 1 2 3 4 5 5 5 6 6 6 6 7 7 7 8 8 8 9
5 5 5 4 5 5 4 4 4 4 4 5 4 4 6 6 5 5 4 3 4 1 3 4 5 5 6 7 7 7 7 7 8 8 8 9 10 10
5 5 5 5 5 4 4 4 4 4 4 4 5 4 5 5 6 5 5 4 5 3 4 6 6 6 6 7 7 8 8 8 8 8 8 8 9 10
4 4 5 6 6 6 5 5 5 5 4 4 4 4 5 5 5 5 5 4 5 5 4 4 5 8 8 8 8 8 9 9 9 9 9 8 8 9
3 4 5 6 7 7 6 6 6 5 5 5 5 5 5 5 5 6 6 6 6 4 5 5 5 5 6 9 10 10 9 9 9 10 10 10 10 10
3 4 3 3 4 3 4 6 7 7 7 6 6 6 7 7 6 6 7 7 6 4 6 6 5 6 6 6 5 7 9 10 10 10 11 11 11 11
4 4 4 4 5 5 3 4 3 4 6 8 8 8 8 8 8 9 8 8 8 7 7 8 7 7 6 5 6 9 10 11 11 11 11 12 12 12
3 4 4 5 7 8 7 7 6 5 5 6 7 8 8 9 9 10 10 10 9 7 7 9 8 8 7 6 8 10 11 11 11 12 12 12 12 12
3 4 5 5 7 9 8 7 7 6 3 5 8 9 10 11 10 8 8 8 8 7 6 7 8 8 8 8 7 10 11 11 12 12 12 12 12 11
2 2 2 5 7 9 9 8 8 8 9 8 8 8 9 7 8 9 7 8 9 8 6 6 8 7 7 7 6 6 7 10 12 12 13 12 12 9
3 3 2 2 6 9 10 8 8 11 10 9 8 8 7 7 6 7 7 7 9 9 8 8 8 8 9 8 7 7 7 7 7 8 11 13 13 12
5 5 3 4 8 9 9 8 10 11 8 7 7 7 7 7 7 8 9 9 9 11 11 11 9 9 10 10 9 7 7 7 7 8 8 9 12 14
5 5 7 7 9 8 7 9 9 7 7 7 8 8 7 8 8 8 9 9 11 11 11 12 10 9 10 10 10 9 8 8 8 8 8 8 8 8
6 5 7 9 8 8 8 7 6 6 7 8 8 8 8 7 7 7 8 8 9 9 10 11 10 11 10 11 10 10 9 9 8 8 8 8 8 8
7 7 7 6 6 6 6 7 7 7 7 7 8 8 8 8 8 7 7 9 9 10 10 8 8 8 10 11 11 10 10 10 9 8 8 8 8 9
7 7 7 7 7 8 8 7 7 7 8 8 8 9 9 8 9 8 8 9 9 10 10 9 8 8 9 9 10 12 10 9 8 8 8 8 9 8
7 8 8 8 8 8 8 8 8 8 8 8 9 9 9 9 9 9 9 9 10 10 10 9 8 8 11 12 10 8 8 8 7 8 8 9 9 8
7 8 8 8 8 8 8 9 9 8 8 8 9 9 9 9 10 10 9 11 11 11 11 10 9 9 10 11 11 11 10 10 8 8 8 7 7 6
8 8 8 8 8 8 8 9 9 9 9 9 9 10 9 10 10 10 10 12 12 11 12 11 9 10 9 8 10 10 9 8 9 9 8 7 8 8
8 8 8 8 8 8 8 8 9 9 10 9 9 9 10 10 11 12 11 11 11 11 12 11 10 9 8 10 11 11 10 9 7 7 9 10 8 8
8 8 8 8 8 8 8 9 11 9 9 9 10 10 10 10 10 10 11 11 11 12 12 11 10 9 9 10 10 10 11 10 7 7 7 8 10 11
Wind_Direction
37 39 33 35 24 19 5 351 340 342 12 28 13 9 356 355 347 322 343 43 334 307 288 273 251 232 226 221 213 216 223 225 220 217 220 221 221 221
33 32 28 27 24 17 5 359 348 336 334 357 349 349 349 332 340 326 328 251 249 262 272 268 265 253 240 230 221 219 225 227 226 225 225 227 227 226
44 41 36 25 18 15 7 0 353 341 323 330 342 340 333 330 333 323 312 296 275 194 249 263 259 256 252 242 231 225 227 231 231 231 231 232 232 227
32 31 31 28 19 13 2 359 358 344 327 329 328 337 333 333 327 315 306 300 297 208 232 254 257 254 250 246 239 232 230 230 232 233 235 236 232 230
24 18 17 15 8 11 356 357 350 346 333 319 326 331 320 328 322 310 305 301 292 265 229 230 239 246 247 240 239 239 235 232 230 229 230 234 234 232
28 20 13 8 1 354 349 350 342 332 329 321 319 321 320 324 313 316 311 308 295 293 287 267 237 232 236 236 236 238 236 233 231 229 229 231 232 232
19 21 27 16 9 355 346 341 334 323 320 319 318 317 318 324 326 321 309 306 296 289 290 278 262 253 236 226 227 231 235 234 231 230 229 230 230 231
7 4 19 8 8 348 348 340 334 325 324 317 313 314 319 322 321 308 307 303 299 303 297 287 278 270 260 254 226 221 232 235 234 231 229 228 228 229
354 358 3 6 336 344 339 282 292 296 300 307 309 314 313 319 313 305 301 298 294 301 298 287 278 272 266 252 218 224 230 233 234 233 231 229 227 227
354 349 343 351 10 344 328 324 326 327 318 303 306 308 311 311 304 299 297 290 284 277 270 276 278 277 274 263 223 222 227 231 232 233 232 230 227 228
347 351 344 346 18 336 318 321 319 319 298 285 295 292 292 288 290 289 288 287 286 285 276 275 283 286 281 270 245 218 223 228 232 232 231 229 228 229
325 322 20 350 349 328 318 319 316 321 318 307 290 278 281 278 266 276 288 288 288 288 282 280 286 291 282 272 267 248 234 229 228 229 227 225 220 228
303 303 335 355 322 318 310 312 325 317 305 302 301 301 298 297 293 290 288 285 286 284 291 288 284 282 276 280 277 269 262 256 242 234 226 222 218 220
298 300 322 325 308 303 300 314 312 300 293 298 300 301 301 301 302 303 297 287 281 283 287 283 278 277 278 277 277 272 269 266 259 254 246 224 220 221
292 313 309 296 290 280 276 289 291 287 294 297 298 300 302 302 303 298 292 289 286 282 280 278 276 275 274 274 275 275 274 269 260 255 252 244 235 228
275 277 262 263 266 281 287 275 277 291 297 292 295 298 300 296 291 293 294 294 291 288 282 279 276 275 273 272 270 270 269 266 261 258 255 253 248 239
303 287 282 283 284 286 288 291 291 289 287 289 292 293 294 294 294 295 294 292 289 292 294 289 282 277 274 276 270 264 264 265 260 258 258 257 254 248
284 279 283 284 287 290 292 291 290 290 292 293 293 293 292 293 294 294 291 289 289 290 291 290 287 284 280 273 256 261 263 265 266 263 260 257 258 253
263 274 280 284 286 287 288 290 291 292 293 291 291 292 293 292 291 290 290 290 289 290 290 286 283 282 282 282 282 261 271 275 274 272 265 259 258 257
260 271 278 282 284 286 287 288 289 290 289 288 289 291 291 290 290 289 289 291 292 293 291 286 280 277 278 285 291 287 266 263 265 265 270 274 275 273
268 272 276 280 283 285 287 288 289 288 289 289 289 290 290 289 288 290 289 289 287 287 289 288 289 284 282 281 278 277 278 263 253 257 265 269 272 267
272 275 278 280 283 285 286 286 285 285 287 286 288 289 288 287 286 286 287 287 285 285 288 289 289 282 274 271 274 279 285 287 282 257 253 251 252 251
273 277 280 281 281 283 283 283 283 285 287 288 288 289 289 288 287 285 286 286 285 286 287 288 286 282 277 272 274 275 276 281 285 285 279 265 245 246